| time (UTC) | temp F | wind direction | speed MPH | gust MPH | rain 1hr in | rain 24hr in | rain mn in | humidity % | barometer mb |
| 20260831222456 | 73 | 207 | 6.0 | 10.0 | 0.00 | 0.00 | 0.00 | 69 | 1014.2 |
| 20260831221956 | 73 | 193 | 5.0 | 10.0 | 0.00 | 0.00 | 0.00 | 71 | 1014.3 |
| 20260831221456 | 73 | 166 | 6.0 | 10.0 | 0.00 | 0.00 | 0.00 | 71 | 1014.4 |
| 20260831220955 | 73 | 204 | 6.0 | 10.0 | 0.00 | 0.00 | 0.00 | 70 | 1014.4 |
| 20260831220455 | 72 | 225 | 6.0 | 10.0 | 0.00 | 0.00 | 0.00 | 68 | 1014.5 |
| 20260831215955 | 72 | 211 | 6.0 | 11.0 | 0.00 | 0.00 | 0.00 | 71 | 1014.5 |
| 20260831215500 | 74 | 193 | 7.0 | 11.0 | 0.00 | 0.00 | 0.00 | 70 | 1014.6 |
| 20260831215456 | 73 | 208 | 7.0 | 11.0 | 0.00 | 0.00 | 0.00 | 71 | 1014.6 |
| 20260831214456 | 74 | 190 | 7.0 | 11.0 | 0.00 | 0.00 | 0.00 | 71 | 1014.6 |
| 20260831213956 | 75 | 200 | 7.0 | 11.0 | 0.00 | 0.00 | 0.00 | 70 | 1014.8 |
| 20260831213456 | 75 | 173 | 6.0 | 12.0 | 0.00 | 0.00 | 0.00 | 70 | 1014.6 |
| 20260831212959 | 74 | 178 | 5.0 | 12.0 | 0.00 | 0.00 | 0.00 | 70 | 1014.6 |
| 20260831212955 | 74 | 209 | 4.0 | 8.0 | 0.00 | 0.00 | 0.00 | 66 | 1014.8 |
| 20260831211956 | 74 | 168 | 5.0 | 8.0 | 0.00 | 0.00 | 0.00 | 70 | 1014.6 |
| 20260831211952 | 73 | 180 | 5.0 | 11.0 | 0.00 | 0.00 | 0.00 | 74 | 1014.8 |
| 20260831210952 | 73 | 197 | 6.0 | 11.0 | 0.00 | 0.00 | 0.00 | 75 | 1014.9 |
| 20260831210454 | 72 | 196 | 6.0 | 12.0 | 0.00 | 0.00 | 0.00 | 74 | 1014.9 |
| 20260831210450 | 72 | 210 | 6.0 | 12.0 | 0.00 | 0.00 | 0.00 | 75 | 1014.9 |
| 20260831205449 | 72 | 204 | 5.0 | 11.0 | 0.00 | 0.00 | 0.00 | 75 | 1014.9 |
| 20260831204949 | 72 | 215 | 5.0 | 11.0 | 0.00 | 0.00 | 0.00 | 74 | 1014.9 |
| 20260831204449 | 71 | 232 | 6.0 | 11.0 | 0.00 | 0.00 | 0.00 | 76 | 1014.9 |
| 20260831203947 | 71 | 163 | 6.0 | 10.0 | 0.00 | 0.00 | 0.00 | 76 | 1014.9 |
| 20260831203447 | 72 | 206 | 6.0 | 10.0 | 0.00 | 0.00 | 0.00 | 77 | 1014.9 |
| 20260831202947 | 71 | 192 | 5.0 | 10.0 | 0.00 | 0.00 | 0.00 | 78 | 1015.0 |
| 20260831202447 | 71 | 160 | 5.0 | 10.0 | 0.00 | 0.00 | 0.00 | 79 | 1014.9 |
| 20260831201947 | 72 | 215 | 6.0 | 10.0 | 0.00 | 0.00 | 0.00 | 75 | 1015.0 |
| 20260831201445 | 73 | 174 | 6.0 | 10.0 | 0.00 | 0.00 | 0.00 | 76 | 1015.0 |
| 20260831200945 | 73 | 216 | 6.0 | 11.0 | 0.00 | 0.00 | 0.00 | 77 | 1015.0 |
| 20260831200446 | 73 | 188 | 6.0 | 11.0 | 0.00 | 0.00 | 0.00 | 76 | 1015.0 |
| 20260831195945 | 73 | 177 | 6.0 | 10.0 | 0.00 | 0.00 | 0.00 | 77 | 1015.0 |
| 20260831195446 | 73 | 202 | 6.0 | 10.0 | 0.00 | 0.00 | 0.00 | 77 | 1015.1 |
| 20260831194947 | 73 | 175 | 6.0 | 11.0 | 0.00 | 0.00 | 0.00 | 77 | 1015.1 |
| 20260831194443 | 72 | 202 | 6.0 | 11.0 | 0.00 | 0.00 | 0.00 | 77 | 1015.2 |
| 20260831193943 | 72 | 171 | 6.0 | 10.0 | 0.00 | 0.00 | 0.00 | 75 | 1015.2 |
| 20260831193445 | 72 | 175 | 5.0 | 9.0 | 0.00 | 0.00 | 0.00 | 77 | 1015.2 |
| 20260831192944 | 72 | 209 | 6.0 | 10.0 | 0.00 | 0.00 | 0.00 | 77 | 1015.3 |
| 20260831192444 | 72 | 182 | 6.0 | 10.0 | 0.00 | 0.00 | 0.00 | 77 | 1015.3 |
| 20260831191942 | 72 | 173 | 7.0 | 11.0 | 0.00 | 0.00 | 0.00 | 78 | 1015.3 |
| 20260831191442 | 71 | 194 | 6.0 | 11.0 | 0.00 | 0.00 | 0.00 | 78 | 1015.4 |
| 20260831190942 | 72 | 188 | 5.0 | 9.0 | 0.00 | 0.00 | 0.00 | 77 | 1015.4 |
| 20260831190446 | 71 | 182 | 4.0 | 9.0 | 0.00 | 0.00 | 0.00 | 80 | 1015.3 |
| 20260831190442 | 72 | 184 | 4.0 | 8.0 | 0.00 | 0.00 | 0.00 | 80 | 1015.4 |
| 20260831185442 | 71 | 189 | 4.0 | 9.0 | 0.00 | 0.00 | 0.00 | 80 | 1015.4 |
| 20260831184942 | 71 | 207 | 4.0 | 9.0 | 0.00 | 0.00 | 0.00 | 78 | 1015.3 |
| 20260831184442 | 71 | 171 | 5.0 | 9.0 | 0.00 | 0.00 | 0.00 | 79 | 1015.4 |
| 20260831183942 | 72 | 218 | 5.0 | 9.0 | 0.00 | 0.00 | 0.00 | 78 | 1015.3 |
| 20260831183442 | 73 | 194 | 5.0 | 9.0 | 0.00 | 0.00 | 0.00 | 77 | 1015.3 |
| 20260831182945 | 73 | 136 | 4.0 | 8.0 | 0.00 | 0.00 | 0.00 | 75 | 1015.3 |
| 20260831182939 | 73 | 153 | 5.0 | 8.0 | 0.00 | 0.00 | 0.00 | 76 | 1015.3 |
| 20260831182546 | 73 | 139 | 3.0 | 7.0 | 0.00 | 0.00 | 0.00 | 77 | 1015.4 |
| 20260831182047 | 72 | 159 | 3.0 | 8.0 | 0.00 | 0.00 | 0.00 | 80 | 1015.4 |
| 20260831180939 | 71 | 163 | 5.0 | 9.0 | 0.00 | 0.00 | 0.00 | 80 | 1015.4 |
| 20260831180444 | 70 | 157 | 4.0 | 8.0 | 0.00 | 0.00 | 0.00 | 79 | 1015.3 |
| 20260831180439 | 71 | 128 | 4.0 | 9.0 | 0.00 | 0.00 | 0.00 | 80 | 1015.3 |
| 20260831175438 | 71 | 150 | 4.0 | 8.0 | 0.00 | 0.00 | 0.00 | 80 | 1015.2 |
| 20260831174939 | 70 | 119 | 4.0 | 8.0 | 0.00 | 0.00 | 0.00 | 81 | 1015.3 |
| 20260831174439 | 71 | 116 | 4.0 | 8.0 | 0.00 | 0.00 | 0.00 | 80 | 1015.2 |
| 20260831173937 | 71 | 102 | 4.0 | 9.0 | 0.00 | 0.00 | 0.00 | 80 | 1015.2 |
| 20260831173443 | 71 | 103 | 4.0 | 8.0 | 0.00 | 0.00 | 0.00 | 82 | 1015.2 |
| 20260831173437 | 71 | 126 | 4.0 | 9.0 | 0.00 | 0.00 | 0.00 | 81 | 1015.1 |
| 20260831172437 | 70 | 169 | 3.0 | 8.0 | 0.00 | 0.00 | 0.00 | 82 | 1015.1 |
| 20260831171936 | 70 | 116 | 2.0 | 8.0 | 0.00 | 0.00 | 0.00 | 82 | 1015.2 |
| 20260831171442 | 71 | 171 | 3.0 | 7.0 | 0.00 | 0.00 | 0.00 | 82 | 1015.2 |
| 20260831171435 | 71 | 209 | 3.0 | 7.0 | 0.00 | 0.00 | 0.00 | 81 | 1015.2 |
| 20260831170433 | 70 | 193 | 3.0 | 7.0 | 0.00 | 0.00 | 0.00 | 82 | 1015.1 |
| 20260831165932 | 70 | 138 | 4.0 | 8.0 | 0.00 | 0.00 | 0.00 | 82 | 1015.0 |
| 20260831165432 | 69 | 167 | 5.0 | 9.0 | 0.00 | 0.00 | 0.00 | 82 | 1015.0 |
| 20260831164933 | 69 | 174 | 4.0 | 9.0 | 0.00 | 0.00 | 0.00 | 82 | 1015.0 |
| 20260831164434 | 69 | 181 | 4.0 | 8.0 | 0.00 | 0.00 | 0.00 | 81 | 1014.9 |
| 20260831163932 | 69 | 173 | 4.0 | 8.0 | 0.00 | 0.00 | 0.00 | 81 | 1014.8 |
| 20260831163432 | 69 | 125 | 5.0 | 8.0 | 0.00 | 0.00 | 0.00 | 81 | 1014.8 |
| 20260831162933 | 69 | 139 | 5.0 | 8.0 | 0.00 | 0.00 | 0.00 | 80 | 1014.8 |
| 20260831162431 | 69 | 150 | 6.0 | 8.0 | 0.00 | 0.00 | 0.00 | 79 | 1014.6 |
| 20260831161931 | 69 | 126 | 5.0 | 9.0 | 0.00 | 0.00 | 0.00 | 79 | 1014.8 |
| 20260831161431 | 69 | 136 | 4.0 | 9.0 | 0.00 | 0.00 | 0.00 | 79 | 1014.5 |
| 20260831160930 | 69 | 97 | 5.0 | 8.0 | 0.00 | 0.00 | 0.00 | 80 | 1014.6 |
| 20260831160431 | 69 | 98 | 5.0 | 8.0 | 0.00 | 0.00 | 0.00 | 80 | 1014.5 |
| 20260831155934 | 69 | 109 | 4.0 | 8.0 | 0.00 | 0.00 | 0.00 | 79 | 1014.5 |
| 20260831155930 | 69 | 116 | 5.0 | 8.0 | 0.00 | 0.00 | 0.00 | 80 | 1014.5 |
| 20260831155538 | 69 | 105 | 5.0 | 8.0 | 0.00 | 0.00 | 0.00 | 79 | 1014.5 |
| 20260831154435 | 68 | 123 | 5.0 | 8.0 | 0.00 | 0.00 | 0.00 | 79 | 1014.5 |
| 20260831154431 | 69 | 147 | 5.0 | 8.0 | 0.00 | 0.00 | 0.00 | 79 | 1014.6 |
| 20260831154039 | 68 | 93 | 4.0 | 8.0 | 0.00 | 0.00 | 0.00 | 79 | 1014.5 |
| 20260831152930 | 68 | 96 | 5.0 | 8.0 | 0.00 | 0.00 | 0.00 | 78 | 1014.5 |
| 20260831152431 | 68 | 80 | 5.0 | 8.0 | 0.00 | 0.00 | 0.00 | 77 | 1014.5 |
| 20260831151930 | 68 | 121 | 4.0 | 7.0 | 0.00 | 0.00 | 0.00 | 76 | 1014.4 |
| 20260831151431 | 68 | 96 | 5.0 | 9.0 | 0.00 | 0.00 | 0.00 | 76 | 1014.3 |
| 20260831150930 | 67 | 44 | 6.0 | 9.0 | 0.00 | 0.00 | 0.00 | 78 | 1014.3 |
| 20260831150430 | 67 | 73 | 6.0 | 9.0 | 0.00 | 0.00 | 0.00 | 77 | 1014.2 |
| 20260831145931 | 67 | 85 | 4.0 | 8.0 | 0.00 | 0.00 | 0.00 | 79 | 1014.1 |
| 20260831145430 | 67 | 75 | 4.0 | 6.0 | 0.00 | 0.00 | 0.00 | 81 | 1014.2 |
| 20260831144930 | 67 | 84 | 3.0 | 7.0 | 0.00 | 0.00 | 0.00 | 79 | 1014.2 |
| 20260831144430 | 67 | 75 | 3.0 | 7.0 | 0.00 | 0.00 | 0.00 | 77 | 1014.2 |
| 20260831143928 | 67 | 74 | 3.0 | 7.0 | 0.00 | 0.00 | 0.00 | 77 | 1014.2 |
| 20260831143427 | 68 | 84 | 4.0 | 7.0 | 0.00 | 0.00 | 0.00 | 74 | 1014.2 |
| 20260831142926 | 68 | 96 | 3.0 | 7.0 | 0.00 | 0.00 | 0.00 | 73 | 1014.1 |
| 20260831142426 | 67 | 104 | 2.0 | 4.0 | 0.00 | 0.00 | 0.00 | 74 | 1014.0 |
| 20260831141928 | 67 | 104 | 2.0 | 4.0 | 0.00 | 0.00 | 0.00 | 74 | 1013.9 |
| 20260831141924 | 67 | 104 | 2.0 | 4.0 | 0.00 | 0.00 | 0.00 | 74 | 1013.9 |
| 20260831140928 | 67 | 104 | 4.0 | 7.0 | 0.00 | 0.00 | 0.00 | 73 | 1013.8 |
| 20260831140924 | 67 | 104 | 2.0 | 4.0 | 0.00 | 0.00 | 0.00 | 73 | 1013.8 |
| 20260831135923 | 67 | 104 | 4.0 | 7.0 | 0.00 | 0.00 | 0.00 | 72 | 1013.6 |
| 20260831135422 | 66 | 104 | 3.0 | 7.0 | 0.00 | 0.00 | 0.00 | 74 | 1013.7 |
| 20260831134922 | 66 | 104 | 3.0 | 6.0 | 0.00 | 0.00 | 0.00 | 75 | 1013.6 |
| 20260831134422 | 66 | 104 | 3.0 | 6.0 | 0.00 | 0.00 | 0.00 | 72 | 1013.5 |
| 20260831133922 | 66 | 104 | 4.0 | 6.0 | 0.00 | 0.00 | 0.00 | 74 | 1013.5 |
| 20260831133422 | 65 | 104 | 5.0 | 6.0 | 0.00 | 0.00 | 0.00 | 72 | 1013.4 |
| 20260831132920 | 65 | 104 | 3.0 | 6.0 | 0.00 | 0.00 | 0.00 | 75 | 1013.4 |
| 20260831132420 | 65 | 104 | 3.0 | 4.0 | 0.00 | 0.00 | 0.00 | 78 | 1013.4 |
| 20260831132029 | 64 | 104 | 2.0 | 6.0 | 0.00 | 0.00 | 0.00 | 82 | 1013.4 |
| 20260831131925 | 64 | 104 | 3.0 | 6.0 | 0.00 | 0.00 | 0.00 | 79 | 1013.4 |
| 20260831131919 | 64 | 104 | 3.0 | 6.0 | 0.00 | 0.00 | 0.00 | 79 | 1013.4 |
| 20260831131029 | 63 | 104 | 1.0 | 3.0 | 0.00 | 0.00 | 0.00 | 86 | 1013.4 |
| 20260831125920 | 63 | 104 | 1.0 | 3.0 | 0.00 | 0.00 | 0.00 | 86 | 1013.2 |
| 20260831125420 | 63 | 104 | 3.0 | 8.0 | 0.00 | 0.00 | 0.00 | 88 | 1013.2 |
| 20260831124920 | 63 | 104 | 4.0 | 8.0 | 0.00 | 0.00 | 0.00 | 87 | 1013.5 |
| 20260831124421 | 63 | 96 | 5.0 | 8.0 | 0.00 | 0.00 | 0.00 | 87 | 1013.4 |
| 20260831123924 | 63 | 98 | 5.0 | 8.0 | 0.00 | 0.00 | 0.00 | 88 | 1013.2 |
| 20260831123918 | 63 | 98 | 6.0 | 9.0 | 0.00 | 0.00 | 0.00 | 88 | 1013.4 |
| 20260831122918 | 63 | 92 | 6.0 | 9.0 | 0.00 | 0.00 | 0.00 | 88 | 1013.2 |
| 20260831122418 | 63 | 98 | 7.0 | 9.0 | 0.00 | 0.00 | 0.00 | 87 | 1013.2 |
| 20260831121918 | 63 | 105 | 8.0 | 9.0 | 0.00 | 0.00 | 0.00 | 87 | 1013.2 |
| 20260831121418 | 64 | 111 | 8.0 | 9.0 | 0.00 | 0.00 | 0.00 | 85 | 1013.2 |
| 20260831120918 | 64 | 111 | 8.0 | 9.0 | 0.00 | 0.00 | 0.00 | 83 | 1013.1 |
| 20260831120418 | 64 | 113 | 8.0 | 9.0 | 0.00 | 0.00 | 0.00 | 79 | 1013.1 |
| 20260831115918 | 64 | 114 | 7.0 | 9.0 | 0.00 | 0.00 | 0.00 | 74 | 1013.0 |
| 20260831115418 | 64 | 119 | 7.0 | 8.0 | 0.00 | 0.00 | 0.00 | 72 | 1013.1 |
| 20260831114917 | 64 | 117 | 8.0 | 9.0 | 0.00 | 0.00 | 0.00 | 72 | 1013.1 |
| 20260831114415 | 64 | 117 | 7.0 | 9.0 | 0.00 | 0.00 | 0.00 | 71 | 1013.1 |
| 20260831113916 | 64 | 122 | 7.0 | 9.0 | 0.00 | 0.00 | 0.00 | 69 | 1013.0 |
| 20260831113416 | 64 | 120 | 7.0 | 9.0 | 0.00 | 0.00 | 0.00 | 70 | 1013.1 |
| 20260831112916 | 64 | 118 | 7.0 | 9.0 | 0.00 | 0.00 | 0.00 | 72 | 1013.1 |
| 20260831112415 | 64 | 111 | 7.0 | 9.0 | 0.00 | 0.00 | 0.00 | 72 | 1013.1 |
| 20260831111916 | 64 | 119 | 6.0 | 8.0 | 0.00 | 0.00 | 0.00 | 71 | 1013.1 |
| 20260831111414 | 64 | 111 | 7.0 | 10.0 | 0.00 | 0.00 | 0.00 | 72 | 1013.2 |
| 20260831110914 | 64 | 107 | 6.0 | 10.0 | 0.00 | 0.00 | 0.00 | 72 | 1013.4 |
| 20260831110414 | 65 | 122 | 6.0 | 10.0 | 0.00 | 0.00 | 0.00 | 72 | 1013.4 |
| 20260831105912 | 65 | 111 | 8.0 | 10.0 | 0.00 | 0.00 | 0.00 | 72 | 1013.4 |
| 20260831105410 | 65 | 105 | 7.0 | 9.0 | 0.00 | 0.00 | 0.00 | 73 | 1013.4 |
| 20260831104910 | 65 | 99 | 7.0 | 10.0 | 0.00 | 0.00 | 0.00 | 74 | 1013.4 |
| 20260831104409 | 65 | 101 | 7.0 | 10.0 | 0.00 | 0.00 | 0.00 | 74 | 1013.4 |
| 20260831103909 | 65 | 96 | 8.0 | 10.0 | 0.00 | 0.00 | 0.00 | 74 | 1013.2 |
| 20260831103408 | 65 | 95 | 8.0 | 10.0 | 0.00 | 0.00 | 0.00 | 74 | 1013.2 |
| 20260831102911 | 66 | 85 | 9.0 | 11.0 | 0.00 | 0.00 | 0.00 | 72 | 1013.4 |
| 20260831102907 | 66 | 86 | 8.0 | 11.0 | 0.00 | 0.00 | 0.00 | 73 | 1013.2 |
| 20260831101911 | 66 | 88 | 9.0 | 12.0 | 0.00 | 0.00 | 0.00 | 71 | 1013.2 |
| 20260831101907 | 66 | 86 | 9.0 | 12.0 | 0.00 | 0.00 | 0.00 | 72 | 1013.2 |
| 20260831100905 | 66 | 86 | 7.0 | 12.0 | 0.00 | 0.00 | 0.00 | 71 | 1013.4 |
| 20260831100409 | 66 | 45 | 5.0 | 9.0 | 0.00 | 0.00 | 0.00 | 69 | 1013.4 |
| 20260831100405 | 66 | 85 | 5.0 | 9.0 | 0.00 | 0.00 | 0.00 | 70 | 1013.4 |
| 20260831095406 | 66 | 53 | 5.0 | 9.0 | 0.00 | 0.00 | 0.00 | 68 | 1013.4 |
| 20260831094907 | 67 | 62 | 4.0 | 9.0 | 0.00 | 0.00 | 0.00 | 67 | 1013.2 |
| 20260831094407 | 67 | 65 | 2.0 | 5.0 | 0.00 | 0.00 | 0.00 | 67 | 1013.4 |
| 20260831094403 | 67 | 45 | 3.0 | 7.0 | 0.00 | 0.00 | 0.00 | 67 | 1013.2 |
| 20260831094012 | 67 | 56 | 2.0 | 5.0 | 0.00 | 0.00 | 0.00 | 66 | 1013.4 |
| 20260831092903 | 67 | 51 | 3.0 | 7.0 | 0.00 | 0.00 | 0.00 | 66 | 1013.4 |
| 20260831092403 | 67 | 52 | 4.0 | 8.0 | 0.00 | 0.00 | 0.00 | 66 | 1013.2 |
| 20260831091904 | 67 | 67 | 3.0 | 8.0 | 0.00 | 0.00 | 0.00 | 66 | 1013.1 |
| 20260831091404 | 67 | 53 | 2.0 | 5.0 | 0.00 | 0.00 | 0.00 | 66 | 1013.2 |
| 20260831090903 | 68 | 67 | 2.0 | 5.0 | 0.00 | 0.00 | 0.00 | 66 | 1013.4 |
| 20260831090404 | 68 | 69 | 1.0 | 3.0 | 0.00 | 0.00 | 0.00 | 65 | 1013.4 |
| 20260831085903 | 68 | 66 | 1.0 | 7.0 | 0.00 | 0.00 | 0.00 | 65 | 1013.4 |
| 20260831085407 | 69 | 67 | 5.0 | 7.0 | 0.00 | 0.00 | 0.00 | 64 | 1013.4 |
| 20260831085403 | 69 | 66 | 3.0 | 7.0 | 0.00 | 0.00 | 0.00 | 65 | 1013.5 |
| 20260831084404 | 69 | 42 | 6.0 | 9.0 | 0.00 | 0.00 | 0.00 | 63 | 1013.5 |
| 20260831083903 | 69 | 38 | 7.0 | 9.0 | 0.00 | 0.00 | 0.00 | 65 | 1013.5 |
| 20260831083404 | 69 | 34 | 7.0 | 9.0 | 0.00 | 0.00 | 0.00 | 64 | 1013.5 |
| 20260831082903 | 69 | 44 | 6.0 | 9.0 | 0.00 | 0.00 | 0.00 | 65 | 1013.5 |
| 20260831082403 | 70 | 36 | 6.0 | 8.0 | 0.00 | 0.00 | 0.00 | 66 | 1013.5 |
| 20260831081903 | 70 | 44 | 6.0 | 7.0 | 0.00 | 0.00 | 0.00 | 65 | 1013.5 |
| 20260831081408 | 71 | 46 | 6.0 | 7.0 | 0.00 | 0.00 | 0.00 | 67 | 1013.5 |
| 20260831081404 | 70 | 46 | 5.0 | 7.0 | 0.00 | 0.00 | 0.00 | 65 | 1013.5 |
| 20260831080407 | 71 | 46 | 6.0 | 7.0 | 0.00 | 0.00 | 0.00 | 67 | 1013.4 |
| 20260831080403 | 71 | 41 | 6.0 | 7.0 | 0.00 | 0.00 | 0.00 | 67 | 1013.4 |
| 20260831075403 | 71 | 46 | 6.0 | 7.0 | 0.00 | 0.00 | 0.00 | 67 | 1013.5 |
| 20260831074903 | 71 | 52 | 6.0 | 7.0 | 0.00 | 0.00 | 0.00 | 67 | 1013.4 |
| 20260831074403 | 71 | 57 | 6.0 | 7.0 | 0.00 | 0.00 | 0.00 | 67 | 1013.4 |
| 20260831073903 | 72 | 59 | 6.0 | 7.0 | 0.00 | 0.00 | 0.00 | 66 | 1013.2 |
| 20260831073407 | 72 | 52 | 5.0 | 6.0 | 0.00 | 0.00 | 0.00 | 67 | 1013.4 |
| 20260831073403 | 72 | 57 | 5.0 | 7.0 | 0.00 | 0.00 | 0.00 | 66 | 1013.4 |
| 20260831072402 | 72 | 52 | 4.0 | 6.0 | 0.00 | 0.00 | 0.00 | 66 | 1013.4 |
| 20260831071906 | 73 | 83 | 2.0 | 5.0 | 0.00 | 0.00 | 0.00 | 66 | 1013.4 |
| 20260831071902 | 73 | 72 | 3.0 | 5.0 | 0.00 | 0.00 | 0.00 | 66 | 1013.2 |
| 20260831070902 | 73 | 83 | 3.0 | 5.0 | 0.00 | 0.00 | 0.00 | 65 | 1013.5 |
| 20260831070402 | 73 | 36 | 3.0 | 4.0 | 0.00 | 0.00 | 0.00 | 64 | 1013.5 |
| 20260831065902 | 73 | 36 | 3.0 | 4.0 | 0.00 | 0.00 | 0.00 | 63 | 1013.5 |
| 20260831065402 | 73 | 36 | 3.0 | 5.0 | 0.00 | 0.00 | 0.00 | 63 | 1013.5 |
| 20260831064902 | 73 | 26 | 3.0 | 5.0 | 0.00 | 0.00 | 0.00 | 63 | 1013.5 |
| 20260831064402 | 72 | 12 | 3.0 | 4.0 | 0.00 | 0.00 | 0.00 | 63 | 1013.6 |
| 20260831063902 | 72 | 12 | 3.0 | 4.0 | 0.00 | 0.00 | 0.00 | 62 | 1013.5 |
| 20260831063359 | 73 | 12 | 3.0 | 4.0 | 0.00 | 0.00 | 0.00 | 62 | 1013.5 |
| 20260831062905 | 73 | 67 | 2.0 | 3.0 | 0.00 | 0.00 | 0.00 | 61 | 1013.6 |
| 20260831062859 | 73 | 67 | 2.0 | 3.0 | 0.00 | 0.00 | 0.00 | 61 | 1013.5 |
| 20260831061859 | 73 | 67 | 1.0 | 3.0 | 0.00 | 0.00 | 0.00 | 61 | 1013.5 |
| 20260831061359 | 73 | 67 | 1.0 | 3.0 | 0.00 | 0.00 | 0.00 | 61 | 1013.5 |
| 20260831060858 | 73 | 44 | 1.0 | 3.0 | 0.00 | 0.00 | 0.00 | 62 | 1013.4 |
| 20260831060358 | 73 | 44 | 2.0 | 4.0 | 0.00 | 0.00 | 0.00 | 61 | 1013.5 |
| 20260831055857 | 73 | 44 | 3.0 | 4.0 | 0.00 | 0.00 | 0.00 | 61 | 1013.5 |
| 20260831055356 | 73 | 44 | 2.0 | 4.0 | 0.00 | 0.00 | 0.00 | 61 | 1013.5 |
| 20260831054857 | 74 | 71 | 2.0 | 3.0 | 0.00 | 0.00 | 0.00 | 60 | 1013.6 |
| 20260831054357 | 74 | 70 | 2.0 | 3.0 | 0.00 | 0.00 | 0.00 | 61 | 1013.6 |
| 20260831053855 | 74 | 70 | 2.0 | 3.0 | 0.00 | 0.00 | 0.00 | 62 | 1013.6 |
| 20260831053354 | 74 | 70 | 2.0 | 3.0 | 0.00 | 0.00 | 0.00 | 62 | 1013.5 |
| 20260831052854 | 74 | 70 | 1.0 | 3.0 | 0.00 | 0.00 | 0.00 | 62 | 1013.5 |
| 20260831052355 | 74 | 71 | 1.0 | 2.0 | 0.00 | 0.00 | 0.00 | 60 | 1013.5 |
| 20260831051854 | 74 | 70 | 2.0 | 3.0 | 0.00 | 0.00 | 0.00 | 59 | 1013.5 |
| 20260831051352 | 74 | 70 | 2.0 | 3.0 | 0.00 | 0.00 | 0.00 | 59 | 1013.5 |
| 20260831050853 | 74 | 70 | 1.0 | 3.0 | 0.00 | 0.00 | 0.00 | 57 | 1013.5 |
| 20260831050353 | 74 | 23 | 0.0 | 2.0 | 0.00 | 0.00 | 0.00 | 51 | 1013.6 |
| 20260831045851 | 74 | 11 | 0.0 | 0.0 | 0.00 | 0.00 | 0.00 | 51 | 1013.5 |
| 20260831045351 | 74 | 11 | 1.0 | 2.0 | 0.00 | 0.00 | 0.00 | 55 | 1013.5 |
| 20260831044850 | 74 | 11 | 2.0 | 4.0 | 0.00 | 0.00 | 0.00 | 64 | 1013.5 |
| 20260831044350 | 73 | 5 | 3.0 | 4.0 | 0.00 | 0.00 | 0.00 | 65 | 1013.5 |
| 20260831043851 | 73 | 5 | 3.0 | 4.0 | 0.00 | 0.00 | 0.00 | 65 | 1013.5 |
| 20260831043352 | 74 | 5 | 3.0 | 4.0 | 0.00 | 0.00 | 0.00 | 64 | 1013.5 |
| 20260831042856 | 74 | 33 | 2.0 | 3.0 | 0.00 | 0.00 | 0.00 | 64 | 1013.4 |
| 20260831042852 | 74 | 5 | 2.0 | 4.0 | 0.00 | 0.00 | 0.00 | 65 | 1013.4 |
| 20260831041851 | 74 | 80 | 2.0 | 4.0 | 0.00 | 0.00 | 0.00 | 63 | 1013.4 |
| 20260831041644 | 75 | 190 | 0.0 | 1.0 | 0.00 | 0.00 | 0.00 | 59 | 1013.2 |
| 20260831041636 | 74 | 186 | 1.0 | 4.0 | 0.00 | 0.00 | 0.00 | 64 | 1013.2 |
| 20260831040351 | 75 | 190 | 0.0 | 1.0 | 0.00 | 0.00 | 0.00 | 59 | 1013.1 |
| 20260831035856 | 75 | 190 | 0.0 | 1.0 | 0.00 | 0.00 | 0.00 | 58 | 1013.1 |
| 20260831035852 | 75 | 190 | 0.0 | 1.0 | 0.00 | 0.00 | 0.00 | 59 | 1013.0 |
| 20260831034852 | 76 | 190 | 0.0 | 2.0 | 0.00 | 0.00 | 0.00 | 56 | 1013.0 |
| 20260831034352 | 76 | 190 | 2.0 | 4.0 | 0.00 | 0.00 | 0.00 | 56 | 1012.8 |
| 20260831033851 | 76 | 190 | 3.0 | 4.0 | 0.00 | 0.00 | 0.00 | 55 | 1012.7 |
| 20260831033351 | 76 | 190 | 3.0 | 4.0 | 0.00 | 0.00 | 0.00 | 54 | 1012.6 |
| 20260831032856 | 76 | 190 | 1.0 | 3.0 | 0.00 | 0.00 | 0.00 | 52 | 1012.5 |
| 20260831032852 | 76 | 190 | 2.0 | 3.0 | 0.00 | 0.00 | 0.00 | 54 | 1012.6 |
| 20260831031851 | 76 | 186 | 0.0 | 6.0 | 0.00 | 0.00 | 0.00 | 56 | 1012.6 |
| 20260831031351 | 76 | 186 | 2.0 | 6.0 | 0.00 | 0.00 | 0.00 | 57 | 1012.6 |
| 20260831030851 | 76 | 186 | 4.0 | 6.0 | 0.00 | 0.00 | 0.00 | 55 | 1012.5 |
| 20260831030351 | 76 | 194 | 5.0 | 6.0 | 0.00 | 0.00 | 0.00 | 53 | 1012.4 |
| 20260831025854 | 76 | 209 | 4.0 | 6.0 | 0.00 | 0.00 | 0.00 | 53 | 1012.4 |
| 20260831025850 | 76 | 219 | 5.0 | 6.0 | 0.00 | 0.00 | 0.00 | 52 | 1012.3 |
| 20260831024848 | 76 | 221 | 4.0 | 6.0 | 0.00 | 0.00 | 0.00 | 53 | 1012.4 |
| 20260831024348 | 76 | 230 | 4.0 | 6.0 | 0.00 | 0.00 | 0.00 | 59 | 1012.4 |
| 20260831023852 | 76 | 227 | 5.0 | 6.0 | 0.00 | 0.00 | 0.00 | 62 | 1012.4 |
| 20260831023848 | 76 | 226 | 4.0 | 6.0 | 0.00 | 0.00 | 0.00 | 60 | 1012.5 |
| 20260831022848 | 76 | 222 | 4.0 | 6.0 | 0.00 | 0.00 | 0.00 | 63 | 1012.4 |
| 20260831022350 | 76 | 207 | 4.0 | 6.0 | 0.00 | 0.00 | 0.00 | 61 | 1012.3 |
| 20260831022346 | 76 | 221 | 4.0 | 6.0 | 0.00 | 0.00 | 0.00 | 62 | 1012.3 |
| 20260831021350 | 77 | 236 | 4.0 | 7.0 | 0.00 | 0.00 | 0.00 | 61 | 1012.4 |
| 20260831021346 | 77 | 225 | 3.0 | 5.0 | 0.00 | 0.00 | 0.00 | 58 | 1012.4 |
| 20260831020346 | 77 | 244 | 4.0 | 7.0 | 0.00 | 0.00 | 0.00 | 58 | 1012.3 |
| 20260831015846 | 78 | 247 | 4.0 | 8.0 | 0.00 | 0.00 | 0.00 | 59 | 1012.2 |
| 20260831015347 | 79 | 246 | 4.0 | 8.0 | 0.00 | 0.00 | 0.00 | 58 | 1012.2 |
| 20260831014847 | 79 | 279 | 5.0 | 8.0 | 0.00 | 0.00 | 0.00 | 59 | 1012.4 |
| 20260831014345 | 79 | 267 | 5.0 | 8.0 | 0.00 | 0.00 | 0.00 | 58 | 1012.3 |
| 20260831013847 | 79 | 261 | 4.0 | 8.0 | 0.00 | 0.00 | 0.00 | 58 | 1012.4 |
| 20260831013346 | 79 | 235 | 3.0 | 8.0 | 0.00 | 0.00 | 0.00 | 56 | 1012.4 |
| 20260831012846 | 79 | 224 | 4.0 | 9.0 | 0.00 | 0.00 | 0.00 | 55 | 1012.4 |
| 20260831012346 | 78 | 242 | 6.0 | 9.0 | 0.00 | 0.00 | 0.00 | 53 | 1012.4 |
| 20260831011846 | 78 | 229 | 6.0 | 8.0 | 0.00 | 0.00 | 0.00 | 53 | 1012.4 |
| 20260831011351 | 79 | 236 | 5.0 | 8.0 | 0.00 | 0.00 | 0.00 | 51 | 1012.4 |
| 20260831011346 | 79 | 229 | 6.0 | 8.0 | 0.00 | 0.00 | 0.00 | 51 | 1012.4 |
| 20260831010350 | 78 | 247 | 5.0 | 8.0 | 0.00 | 0.00 | 0.00 | 57 | 1012.4 |
| 20260831010345 | 78 | 222 | 5.0 | 7.0 | 0.00 | 0.00 | 0.00 | 53 | 1012.4 |
| 20260831005344 | 78 | 238 | 6.0 | 8.0 | 0.00 | 0.00 | 0.00 | 56 | 1012.4 |
| 20260831004848 | 78 | 229 | 5.0 | 7.0 | 0.00 | 0.00 | 0.00 | 58 | 1012.4 |
| 20260831004844 | 78 | 234 | 5.0 | 8.0 | 0.00 | 0.00 | 0.00 | 58 | 1012.5 |
| 20260831003849 | 79 | 227 | 5.0 | 8.0 | 0.00 | 0.00 | 0.00 | 52 | 1012.4 |
| 20260831003844 | 79 | 232 | 5.0 | 8.0 | 0.00 | 0.00 | 0.00 | 57 | 1012.5 |
| 20260831002844 | 80 | 252 | 6.0 | 8.0 | 0.00 | 0.00 | 0.00 | 51 | 1012.5 |
| 20260831002344 | 79 | 223 | 6.0 | 8.0 | 0.00 | 0.00 | 0.00 | 49 | 1012.5 |
| 20260831001845 | 78 | 205 | 6.0 | 8.0 | 0.00 | 0.00 | 0.00 | 51 | 1012.5 |
| 20260831001344 | 78 | 223 | 5.0 | 8.0 | 0.00 | 0.00 | 0.00 | 55 | 1012.4 |
| 20260831000843 | 77 | 238 | 5.0 | 7.0 | 0.00 | 0.00 | 0.00 | 57 | 1012.5 |
| 20260831000342 | 78 | 237 | 5.0 | 7.0 | 0.00 | 0.00 | 0.00 | 51 | 1012.4 |
| 20260830235841 | 79 | 232 | 5.0 | 7.0 | 0.00 | 0.00 | 0.00 | 51 | 1012.5 |
| 20260830235342 | 79 | 226 | 5.0 | 7.0 | 0.00 | 0.00 | 0.00 | 53 | 1012.5 |
| 20260830234840 | 79 | 203 | 4.0 | 6.0 | 0.00 | 0.00 | 0.00 | 57 | 1012.5 |
| 20260830234340 | 79 | 238 | 4.0 | 6.0 | 0.00 | 0.00 | 0.00 | 55 | 1012.5 |
| 20260830233839 | 78 | 225 | 4.0 | 7.0 | 0.00 | 0.00 | 0.00 | 58 | 1012.6 |
| 20260830233340 | 78 | 242 | 5.0 | 7.0 | 0.00 | 0.00 | 0.00 | 60 | 1012.5 |
| 20260830232840 | 77 | 247 | 5.0 | 7.0 | 0.00 | 0.00 | 0.00 | 61 | 1012.6 |
| 20260830232343 | 77 | 242 | 5.0 | 7.0 | 0.00 | 0.00 | 0.00 | 62 | 1012.6 |
| 20260830232339 | 78 | 219 | 4.0 | 7.0 | 0.00 | 0.00 | 0.00 | 60 | 1012.6 |
| 20260830231340 | 80 | 232 | 4.0 | 6.0 | 0.00 | 0.00 | 0.00 | 59 | 1012.7 |
| 20260830231336 | 79 | 236 | 4.0 | 6.0 | 0.00 | 0.00 | 0.00 | 60 | 1012.7 |
| 20260830230334 | 80 | 227 | 3.0 | 6.0 | 0.00 | 0.00 | 0.00 | 57 | 1012.7 |
| 20260830225834 | 80 | 236 | 3.0 | 6.0 | 0.00 | 0.00 | 0.00 | 59 | 1012.8 |
| 20260830225332 | 79 | 214 | 3.0 | 5.0 | 0.00 | 0.00 | 0.00 | 60 | 1012.8 |
| 20260830224831 | 79 | 227 | 3.0 | 6.0 | 0.00 | 0.00 | 0.00 | 60 | 1012.8 |
| 20260830224331 | 80 | 227 | 3.0 | 6.0 | 0.00 | 0.00 | 0.00 | 56 | 1012.9 |
| 20260830223832 | 80 | 221 | 4.0 | 7.0 | 0.00 | 0.00 | 0.00 | 52 | 1012.9 |
| 20260830223335 | 80 | 220 | 4.0 | 7.0 | 0.00 | 0.00 | 0.00 | 56 | 1013.1 |
| 20260830223331 | 80 | 234 | 4.0 | 7.0 | 0.00 | 0.00 | 0.00 | 59 | 1013.0 |